Simultaneous Nadir Overpasses (SNOs) Predictions

Prediction of SNOs between NPP and TERRA Satellite Orbit:

Table of predicted SNOs for the next 14.0 days since TLE Epoch: 1/11/2013
Index Date (NPP) Time (NPP) Lat,Lon (NPP) SZA (NPP ) Date (TERRA) Time (TERRA) Lat,Lon (TERRA) SZA (TERRA ) Distance(km) Time Diff (sec)
1 01/13/2013 03:44:58 69.17, 120.87 90.59 01/13/2013 03:46:05 69.05, 122.99 90.42 84.91 67
2 01/13/2013 04:35:23 -68.19, -70.50 90.43 01/13/2013 04:35:49 -68.17, -70.47 90.46 2.92 26
3 01/13/2013 05:26:07 68.05, 96.98 89.42 01/13/2013 05:25:16 68.06, 97.04 89.43 2.68 51
4 01/15/2013 20:01:37 68.38,-122.29 89.30 01/15/2013 20:02:47 68.36,-121.99 89.26 12.17 70
5 01/15/2013 20:52:16 -68.15, 45.33 90.95 01/15/2013 20:52:19 -68.14, 45.38 90.96 2.25 3
6 01/15/2013 21:42:59 67.96,-147.12 88.85 01/15/2013 21:41:47 67.97,-147.17 88.87 3.03 72
7 01/18/2013 12:18:26 68.19, -6.26 88.57 01/18/2013 12:19:18 68.21, -6.30 88.59 2.99 52
8 01/18/2013 13:09:08 -68.11, 161.15 91.51 01/18/2013 13:08:48 -68.11, 161.21 91.52 2.78 20
9 01/18/2013 13:59:37 67.17, -30.39 87.51 01/18/2013 13:58:29 67.20, -32.16 87.60 76.68 68
10 01/21/2013 04:35:19 68.16, 109.55 87.97 01/21/2013 04:35:48 68.15, 109.52 87.96 1.75 29
11 01/21/2013 05:26:00 -68.03, -82.96 92.17 01/21/2013 05:25:18 -68.05, -82.97 92.15 2.36 42
12 01/23/2013 20:01:34 -68.59, 57.47 92.19 01/23/2013 20:02:46 -68.48, 58.15 92.33 30.00 72
13 01/23/2013 20:52:12 68.14,-134.64
